Regional Weather Roundup
Issued by NWS

Home | Current Version | Previous Version | Graphics & Text | Print | Product List | Glossary On
Versions: 1 2 3 4 5 6 7 8 9 10 11 12 13 14 15 16 17 18 19 20 21 22 23 24 25 26 27 28 29 30 31 32 33 34 35 36 37 38 39 40 41 42 43 44 45 46 47 48 49 50
000
ASUS43 KMKX 271721
RWRWI

WISCONSIN REGIONAL WEATHER ROUNDUP
NATIONAL WEATHER SERVICE MILWAUKEE/SULLIVAN WI
1200 PM CDT SAT AUG 27 2016

NOTE: "FAIR" INDICATES FEW OR NO CLOUDS BELOW 12,000 FEET WITH NO
SIGNIFICANT WEATHER AND/OR OBSTRUCTIONS TO VISIBILITY.

WIZ001-002-006>008-014>016-023>028-271800-
NORTHWEST WISCONSIN

CITY           SKY/WX    TMP DP  RH WIND       PRES   REMARKS
SUPERIOR ARPT  LGT RAIN  62  60  93 NE3       30.05F
ASHLAND        PTSUNNY   69  57  65 S6        30.07F
HAYWARD        CLOUDY    66  56  70 VRB7      30.07F
SIREN          LGT RAIN  64  60  87 SE5       30.05F
CUMBERLAND     CLOUDY    63  55  77 SE6       30.07F
RICE LAKE      LGT RAIN  66  58  75 E7        30.07F
CHETEK         NOT AVBL
LADYSMITH      CLOUDY    71  59  65 CALM      30.08F
EAU CLAIRE     CLOUDY    67  58  72 SE7       30.04F
MENOMONIE      CLOUDY    67  59  76 E6        30.05F
NEW RICHMOND   LGT RAIN  65  62  92 E7        30.04F
OSCEOLA        DRIZZLE   65  65 100 E6        30.07F
$$

WIZ003>005-009-010-017-018-271800-
NORTH CENTRAL WISCONSIN

CITY           SKY/WX    TMP DP  RH WIND       PRES   REMARKS
MANITOWISH WTR NOT AVBL
ARBOR VITAE    MOSUNNY   69  57  64 SE3       30.10F
WOODRUFF       MOSUNNY   69  57  64 SE3       30.10F
RHINELANDER    CLOUDY    67  58  72 SE10      30.10F
EAGLE RIVER    PTSUNNY   67  54  62 S7        30.09F
LAND O LAKES   PTSUNNY   69  55  60 SE9       30.10F
PHILLIPS       CLOUDY    67  56  67 E5        30.07F
TOMAHAWK       CLOUDY    66  57  71 SE3       30.09F
MEDFORD        PTSUNNY   67  57  72 E8        30.08F
MERRILL        PTSUNNY   67  59  75 SE9       30.09F
$$

WIZ029-030-035-036-043>047-271800-
CENTRAL WISCONSIN

CITY           SKY/WX    TMP DP  RH WIND       PRES   REMARKS
WAUSAU         CLOUDY    65  57  75 E10       30.07F
MOSINEE        CLOUDY    63  59  88 E6        30.10F
MARSHFIELD     CLOUDY    65  57  75 E8        30.07F
STEVENS POINT  CLOUDY    61  58  88 E5        30.09S
WAUPACA        CLOUDY    66  64  92 E7        30.08S
WAUTOMA        CLOUDY    64  61  90 E7        30.06F
WISC RAPIDS    CLOUDY    65  61  87 SE7       30.08S
CAMP DOUGLAS   CLOUDY    64  63  94 E7        30.05F
$$

WIZ011>013-019>022-031-037>040-048>050-271800-
NORTHEAST WISCONSIN

CITY           SKY/WX    TMP DP  RH WIND       PRES   REMARKS
ANTIGO         CLOUDY    64  59  85 SE6       30.10F
SHAWANO        CLOUDY    66  62  87 SE6       30.09F
OCONTO         NOT AVBL
STURGEON BAY   CLOUDY    66  61  84 E6        30.09F
GREEN BAY      CLOUDY    63  62  97 E8        30.08F
MANITOWOC      LGT RAIN  63  60  90 E7        30.08F
APPLETON       CLOUDY    64  63  94 E8        30.06F
CLINTONVILLE   CLOUDY    64  61  88 E6        30.07F
OSHKOSH        CLOUDY    63  60  90 E7        30.06F
$$

WIZ032>034-041-042-053>061-271800-
SOUTHWEST WISCONSIN

CITY           SKY/WX    TMP DP  RH WIND       PRES   REMARKS
LA CROSSE      CLOUDY    67  62  84 SE6       30.03F
SPARTA         CLOUDY    64  61  88 E7        30.05F
VIROQUA        CLOUDY    66  63  90 E5        30.05R
BOSCOBEL       CLOUDY    69  64  84 NE6       30.03F
PRAIRIE DU CHI CLOUDY    66  65  96 E5        30.01F
PLATTEVILLE    CLOUDY    67  67 100 E6        30.04R
$$

WIZ056-057-062-063-064-067-068-271800-
SOUTH CENTRAL WISCONSIN

CITY           SKY/WX    TMP DP  RH WIND       PRES   REMARKS
REEDSBURG      NOT AVBL
BARABOO/DELLS  CLOUDY    64  61  90 E9        30.04F
LONE ROCK      LGT RAIN  65  63  93 E7        30.03F
MINERAL POINT  CLOUDY    66  66 100 E5        30.04S FOG
MADISON        DRIZZLE   66  64  93 E7        30.04S
MIDDLETON      CLOUDY    66  66 100 E5        30.05S
WATERTOWN      CLOUDY    68  66  93 E9        30.04F
MONROE         CLOUDY    70  68  94 S3        30.04S
JANESVILLE     CLOUDY    75  72  88 SE6       30.02S
$$

WIZ051-052-058>065-066-070>072-271800-
SOUTHEAST WISCONSIN

CITY           SKY/WX    TMP DP  RH WIND       PRES   REMARKS
MILWAUKEE      CLOUDY    71  66  84 N3        30.05S
WAUKESHA       CLOUDY    64  63  94 E6        30.07S
MILWAUKEE/TIMM CLOUDY    66  61  82 NE5       30.06S
RACINE         LGT RAIN  72  68  87 SE3       30.06S
BURLINGTON     CLOUDY    68  65  92 E3        30.05S
KENOSHA        CLOUDY    74  70  87 S7        30.05S
FOND DU LAC    CLOUDY    63  60  90 E5        30.06F
SHEBOYGAN      CLOUDY    64  61  90 NE12      30.07F FOG
WEST BEND      CLOUDY    63  61  94 E8        30.06F
JUNEAU         CLOUDY    63  61  91 NE8       30.06F
$$

LSZ147-162-271800-
LAKE SUPERIOR

STATION/POSITION TIME  TEMP    WIND        PRES    WAVE
                       AIR SEA DIR/SP/G            HT/PER
                 (UTC) (F)     (DEG/KT/KT) (MB)    (FT/S)
W MID LAKE BUOY  1650   65 67  140/  8/ 10 1018.3F   1/ 3
DEVILS ISLAND    1700   66     130/  3/  4 1018.2F
PORT WING        1600   67     120/  2/  4 1018.6F
SAXON HARBOR     1640   71     160/  3/  7 1017.9F
$$

LMZ867-665-643>646-271800-
LAKE MICHIGAN

STATION/POSITION TIME  TEMP    WIND        PRES    WAVE
                       AIR SEA DIR/SP/G            HT/PER
                 (UTC) (F)     (DEG/KT/KT) (MB)    (FT/S)
CHAMBERS ISLAND  1640   63     100/  4/  7 1019.3F
S GREEN BAY BUOY 1700   65 71  110/  8/ 12 1018.0
N MID LAKE BUOY  1650   65 69  140/  8/ 10 1018.8F   2/ 3
NORTHPORT PIER   1600   64     140/ 12/ 14 1020.0F
SISTER BAY       1607   61     140/ 10/ 15   N/A
KEWAUNEE LAKESHO 1600   60      50/  4/  6 1018.6F
SHEBOYGAN LAKESH 1700   60     360/ 11/ 11 1017.5F
PORT WASHINGTON  1640   65      40/  7/ 13 1018.3F
ATWATER BUOY     1700   62     350/  8/ 12   N/A
MILWAUKEE LAKESH 1610   67      20/  7/  8   N/A
S MID LAKE BUOY  1650   73 74  150/ 10/ 12 1016.9R   2/ 4
KENOSHA   LAKESH 1700   69     180/  7/ 10 1017.3S
$$

TC  - TEMPERATURE IN CELSIUS
VSB - VISIBILITY IN STATUTE MILES
WCI - WIND CHILL INDEX
HX  - HEAT INDEX





USA.gov is the U.S. government's official web portal to all federal, state and local government web resources and services.